Location: Ca�n Batista
(41.4099°N, 1.7752°E)
Time: 14:50:21
(UTC+00:00)

CZ-4B R/B - Pass Details

Date: 03 March 2021
Orbit: 388 x 454 km, 97.6° (Epoch: 21 April)

Event Time Altitude Azimuth Distance (km) Brightness Sun altitude
Rises 18:38:45 0° 360° (N) 2,292 5.0 -10.7°
Reaches altitude 10° 18:40:54 10° 347° (NNW) 1,435 4.1 -11.1°
Maximum altitude 18:43:30 26° 288° (WNW) 819 3.6 -11.6°
Drops below altitude 10° 18:46:08 10° 230° (SW) 1,442 4.7 -12.1°
Sets 18:48:17 0° 217° (SW) 2,306 5.5 -12.5°
